QPF
0.07 0.09 0.11 0.15 0.13 0.13 0.12 0.10 0.07 0.07 0.07 0.07 0.07 0.06 0.05 0.05 0.06 0.08 0.08 0.07 0.06 0.07 0.08 0.10 0.14 0.18 0.21 0.22 0.20 0.13 0.08 0.06 0.07 0.09 0.09 0.08 0.05 0.05 0.06 0.06 0.06 0.06 0.07
0.06 0.09 0.10 0.10 0.12 0.13 0.12 0.10 0.08 0.07 0.09 0.09 0.07 0.08 0.06 0.04 0.05 0.08 0.07 0.05 0.06 0.08 0.09 0.11 0.14 0.15 0.15 0.16 0.18 0.15 0.08 0.06 0.07 0.07 0.07 0.06 0.06 0.07 0.07 0.05 0.04 0.06 0.06
0.05 0.09 0.12 0.10 0.12 0.11 0.08 0.08 0.06 0.10 0.18 0.13 0.10 0.11 0.10 0.05 0.05 0.07 0.07 0.06 0.06 0.07 0.08 0.12 0.10 0.09 0.09 0.13 0.18 0.15 0.08 0.06 0.06 0.06 0.08 0.07 0.07 0.07 0.06 0.05 0.04 0.04 0.06
0.04 0.08 0.11 0.13 0.09 0.09 0.09 0.08 0.06 0.08 0.14 0.11 0.09 0.10 0.12 0.07 0.06 0.08 0.07 0.06 0.07 0.07 0.07 0.07 0.06 0.06 0.08 0.11 0.15 0.12 0.08 0.06 0.06 0.08 0.09 0.09 0.07 0.05 0.06 0.06 0.05 0.05 0.07
0.06 0.08 0.11 0.11 0.08 0.08 0.10 0.07 0.06 0.06 0.07 0.08 0.07 0.08 0.09 0.09 0.09 0.08 0.06 0.07 0.08 0.06 0.06 0.06 0.04 0.04 0.07 0.10 0.11 0.08 0.07 0.06 0.08 0.09 0.09 0.10 0.09 0.05 0.04 0.05 0.05 0.04 0.05
0.04 0.06 0.11 0.10 0.09 0.09 0.08 0.06 0.07 0.07 0.08 0.12 0.11 0.10 0.11 0.10 0.09 0.08 0.07 0.08 0.09 0.08 0.06 0.06 0.05 0.04 0.05 0.06 0.06 0.06 0.06 0.08 0.08 0.07 0.07 0.07 0.06 0.05 0.03 0.05 0.05 0.03 0.04
0.04 0.08 0.13 0.11 0.11 0.08 0.06 0.08 0.09 0.09 0.09 0.11 0.12 0.13 0.11 0.09 0.09 0.08 0.06 0.07 0.07 0.06 0.05 0.06 0.08 0.08 0.06 0.07 0.07 0.07 0.08 0.08 0.06 0.04 0.04 0.04 0.03 0.03 0.04 0.05 0.05 0.04 0.05
0.05 0.08 0.11 0.14 0.14 0.09 0.08 0.09 0.10 0.09 0.09 0.11 0.11 0.11 0.09 0.08 0.08 0.10 0.08 0.08 0.07 0.06 0.06 0.06 0.08 0.08 0.10 0.12 0.12 0.10 0.08 0.05 0.03 0.03 0.03 0.03 0.03 0.03 0.04 0.05 0.04 0.04 0.05
0.05 0.07 0.12 0.20 0.15 0.12 0.12 0.08 0.08 0.08 0.08 0.10 0.09 0.08 0.08 0.08 0.08 0.09 0.08 0.08 0.09 0.09 0.08 0.08 0.09 0.10 0.12 0.13 0.10 0.07 0.05 0.04 0.02 0.03 0.02 0.02 0.03 0.03 0.03 0.04 0.05 0.04 0.04
0.03 0.07 0.13 0.13 0.11 0.11 0.13 0.09 0.08 0.08 0.10 0.11 0.08 0.07 0.07 0.07 0.07 0.07 0.05 0.07 0.09 0.09 0.09 0.12 0.17 0.13 0.10 0.08 0.06 0.05 0.05 0.04 0.03 0.03 0.03 0.02 0.03 0.04 0.04 0.04 0.04 0.03 0.03
0.02 0.05 0.07 0.07 0.07 0.08 0.09 0.08 0.09 0.08 0.11 0.14 0.10 0.09 0.08 0.08 0.08 0.07 0.06 0.08 0.08 0.12 0.19 0.21 0.20 0.15 0.08 0.05 0.05 0.05 0.04 0.03 0.03 0.03 0.03 0.02 0.03 0.04 0.04 0.03 0.02 0.02 0.02
0.02 0.03 0.04 0.03 0.05 0.06 0.06 0.09 0.11 0.11 0.10 0.12 0.09 0.07 0.07 0.06 0.07 0.08 0.09 0.08 0.09 0.24 0.28 0.18 0.16 0.13 0.10 0.06 0.05 0.03 0.02 0.02 0.03 0.02 0.03 0.02 0.02 0.03 0.03 0.04 0.03 0.03 0.04
0.02 0.02 0.03 0.03 0.04 0.05 0.07 0.07 0.08 0.08 0.08 0.10 0.07 0.06 0.06 0.06 0.07 0.07 0.08 0.09 0.09 0.10 0.10 0.08 0.10 0.11 0.12 0.09 0.07 0.03 0.02 0.04 0.05 0.03 0.02 0.02 0.03 0.05 0.06 0.05 0.04 0.03 0.06
0.02 0.01 0.03 0.04 0.06 0.06 0.06 0.05 0.04 0.04 0.06 0.08 0.07 0.04 0.03 0.04 0.06 0.07 0.09 0.10 0.10 0.09 0.07 0.07 0.08 0.11 0.12 0.10 0.10 0.07 0.06 0.08 0.06 0.05 0.04 0.02 0.03 0.04 0.05 0.06 0.05 0.05 0.07
0.03 0.03 0.04 0.04 0.07 0.07 0.06 0.05 0.03 0.04 0.06 0.06 0.05 0.04 0.03 0.03 0.05 0.05 0.07 0.06 0.05 0.05 0.04 0.05 0.05 0.06 0.09 0.10 0.11 0.10 0.10 0.10 0.07 0.04 0.04 0.03 0.02 0.02 0.03 0.05 0.05 0.07 0.09
0.02 0.03 0.04 0.04 0.05 0.06 0.06 0.05 0.04 0.04 0.06 0.06 0.06 0.05 0.06 0.06 0.06 0.07 0.06 0.06 0.05 0.03 0.03 0.05 0.04 0.03 0.04 0.07 0.10 0.11 0.12 0.10 0.06 0.04 0.04 0.04 0.02 0.02 0.02 0.04 0.05 0.06 0.07
0.02 0.02 0.03 0.03 0.04 0.04 0.06 0.05 0.04 0.05 0.05 0.05 0.05 0.05 0.05 0.06 0.06 0.06 0.06 0.06 0.05 0.04 0.03 0.04 0.04 0.04 0.03 0.04 0.08 0.09 0.09 0.08 0.06 0.05 0.04 0.04 0.03 0.02 0.02 0.02 0.04 0.05 0.05
0.02 0.03 0.03 0.02 0.02 0.03 0.05 0.06 0.05 0.05 0.04 0.05 0.05 0.05 0.04 0.05 0.06 0.07 0.06 0.05 0.04 0.03 0.04 0.04 0.04 0.05 0.07 0.07 0.08 0.07 0.07 0.09 0.07 0.05 0.04 0.03 0.04 0.03 0.03 0.03 0.04 0.04 0.04
0.01 0.02 0.02 0.03 0.04 0.05 0.06 0.06 0.06 0.05 0.05 0.05 0.05 0.04 0.05 0.05 0.05 0.07 0.06 0.08 0.05 0.04 0.04 0.05 0.07 0.07 0.08 0.07 0.05 0.05 0.04 0.06 0.04 0.04 0.04 0.04 0.04 0.03 0.05 0.04 0.03 0.03 0.04
0.01 0.01 0.01 0.03 0.05 0.05 0.04 0.04 0.04 0.05 0.05 0.06 0.08 0.07 0.05 0.05 0.05 0.06 0.05 0.09 0.06 0.04 0.05 0.06 0.08 0.09 0.10 0.07 0.04 0.04 0.04 0.05 0.04 0.05 0.04 0.04 0.04 0.03 0.04 0.05 0.05 0.03 0.03
0.02 0.02 0.01 0.03 0.04 0.04 0.03 0.03 0.04 0.07 0.08 0.08 0.07 0.04 0.04 0.04 0.05 0.06 0.06 0.12 0.08 0.06 0.06 0.06 0.06 0.08 0.08 0.07 0.08 0.08 0.06 0.04 0.03 0.03 0.04 0.04 0.03 0.03 0.03 0.04 0.05 0.04 0.03
0.02 0.01 0.01 0.03 0.03 0.04 0.04 0.05 0.04 0.06 0.09 0.11 0.07 0.03 0.02 0.03 0.05 0.05 0.06 0.08 0.07 0.07 0.07 0.05 0.05 0.05 0.05 0.05 0.07 0.07 0.06 0.06 0.04 0.02 0.03 0.03 0.02 0.04 0.03 0.02 0.03 0.04 0.03
0.01 0.01 0.01 0.03 0.03 0.04 0.04 0.04 0.05 0.05 0.06 0.09 0.06 0.04 0.04 0.04 0.03 0.06 0.07 0.06 0.06 0.06 0.06 0.07 0.07 0.05 0.06 0.06 0.05 0.05 0.06 0.06 0.05 0.03 0.02 0.02 0.02 0.03 0.03 0.02 0.02 0.02 0.03
0.01 0.00 0.01 0.03 0.04 0.04 0.03 0.03 0.04 0.05 0.06 0.05 0.04 0.04 0.05 0.04 0.04 0.05 0.05 0.05 0.05 0.06 0.06 0.04 0.04 0.04 0.05 0.05 0.04 0.04 0.05 0.05 0.04 0.04 0.02 0.01 0.01 0.02 0.03 0.02 0.02 0.03 0.04
0.00 0.00 0.01 0.02 0.03 0.03 0.04 0.04 0.04 0.06 0.06 0.04 0.04 0.04 0.05 0.05 0.04 0.03 0.05 0.05 0.04 0.04 0.04 0.04 0.04 0.03 0.03 0.04 0.04 0.04 0.04 0.05 0.04 0.04 0.03 0.02 0.01 0.01 0.02 0.02 0.02 0.02 0.02
0.01 0.02 0.03 0.03 0.04 0.04 0.03 0.03 0.03 0.05 0.05 0.04 0.05 0.05 0.05 0.05 0.04 0.03 0.03 0.03 0.03 0.03 0.03 0.04 0.04 0.04 0.04 0.06 0.07 0.05 0.05 0.06 0.05 0.04 0.04 0.03 0.03 0.03 0.03 0.03 0.02 0.02 0.02
MSLP
1006.69 1006.41 1006.38 1006.55 1006.85 1007.16 1007.40 1007.50 1007.44 1007.26 1007.00 1006.73 1006.50 1006.35 1006.27 1006.22 1006.17 1006.06 1005.86 1005.57 1005.22 1004.85 1004.50 1004.22 1004.04 1003.97 1003.98 1004.06 1004.18 1004.31 1004.46 1004.63 1004.83 1005.07 1005.37 1005.74 1006.14 1006.57 1006.99 1007.40 1007.77 1008.11 1008.43
1006.64 1006.39 1006.36 1006.52 1006.78 1007.05 1007.25 1007.33 1007.26 1007.06 1006.79 1006.50 1006.24 1006.03 1005.86 1005.70 1005.52 1005.29 1004.98 1004.61 1004.20 1003.79 1003.43 1003.16 1003.00 1002.95 1002.98 1003.08 1003.21 1003.35 1003.51 1003.68 1003.88 1004.14 1004.46 1004.85 1005.29 1005.77 1006.27 1006.75 1007.21 1007.64 1008.04
1006.42 1006.21 1006.21 1006.37 1006.62 1006.88 1007.07 1007.14 1007.07 1006.88 1006.61 1006.29 1005.97 1005.67 1005.38 1005.09 1004.77 1004.41 1003.99 1003.55 1003.10 1002.69 1002.35 1002.12 1001.99 1001.96 1002.02 1002.13 1002.26 1002.41 1002.56 1002.74 1002.94 1003.20 1003.52 1003.91 1004.36 1004.86 1005.39 1005.94 1006.48 1007.01 1007.51
1006.04 1005.89 1005.92 1006.10 1006.37 1006.63 1006.83 1006.91 1006.86 1006.67 1006.39 1006.04 1005.65 1005.25 1004.84 1004.41 1003.96 1003.49 1003.00 1002.52 1002.07 1001.68 1001.38 1001.17 1001.06 1001.04 1001.09 1001.18 1001.30 1001.44 1001.60 1001.78 1002.00 1002.27 1002.59 1002.97 1003.41 1003.91 1004.45 1005.03 1005.64 1006.25 1006.86
1005.57 1005.46 1005.53 1005.74 1006.02 1006.30 1006.51 1006.60 1006.56 1006.39 1006.10 1005.71 1005.26 1004.77 1004.25 1003.72 1003.18 1002.64 1002.11 1001.63 1001.20 1000.83 1000.54 1000.33 1000.20 1000.13 1000.11 1000.14 1000.21 1000.33 1000.50 1000.72 1000.98 1001.30 1001.65 1002.05 1002.49 1002.98 1003.52 1004.11 1004.75 1005.44 1006.14
1005.11 1005.04 1005.13 1005.35 1005.63 1005.90 1006.11 1006.21 1006.18 1006.00 1005.70 1005.28 1004.78 1004.22 1003.63 1003.04 1002.45 1001.90 1001.38 1000.92 1000.51 1000.15 999.82 999.54 999.28 999.07 998.91 998.81 998.80 998.90 999.10 999.39 999.78 1000.21 1000.68 1001.15 1001.64 1002.13 1002.67 1003.26 1003.92 1004.64 1005.41
1004.77 1004.70 1004.78 1004.98 1005.23 1005.48 1005.67 1005.75 1005.70 1005.51 1005.19 1004.75 1004.22 1003.63 1003.01 1002.40 1001.83 1001.30 1000.82 1000.38 999.97 999.55 999.12 998.66 998.18 997.72 997.31 997.02 996.89 996.95 997.22 997.66 998.24 998.90 999.57 1000.22 1000.82 1001.38 1001.94 1002.53 1003.18 1003.93 1004.73
1004.62 1004.53 1004.57 1004.72 1004.91 1005.09 1005.22 1005.26 1005.17 1004.96 1004.61 1004.15 1003.61 1003.02 1002.41 1001.83 1001.30 1000.82 1000.39 999.96 999.50 998.97 998.33 997.59 996.77 995.95 995.22 994.66 994.38 994.42 994.78 995.44 996.31 997.29 998.28 999.20 1000.00 1000.70 1001.33 1001.94 1002.60 1003.34 1004.15
1004.71 1004.57 1004.55 1004.60 1004.70 1004.78 1004.82 1004.78 1004.64 1004.39 1004.02 1003.55 1003.01 1002.43 1001.87 1001.34 1000.86 1000.44 1000.03 999.58 999.02 998.30 997.38 996.27 995.03 993.78 992.65 991.80 991.35 991.37 991.86 992.78 994.02 995.40 996.79 998.07 999.17 1000.07 1000.82 1001.49 1002.15 1002.88 1003.69
1005.00 1004.81 1004.70 1004.65 1004.62 1004.58 1004.51 1004.39 1004.18 1003.88 1003.48 1003.01 1002.47 1001.93 1001.40 1000.92 1000.51 1000.12 999.72 999.21 998.51 997.55 996.30 994.78 993.09 991.38 989.86 988.70 988.08 988.09 988.73 989.93 991.54 993.37 995.20 996.88 998.31 999.46 1000.37 1001.12 1001.82 1002.55 1003.34
1005.45 1005.20 1005.00 1004.83 1004.67 1004.51 1004.33 1004.11 1003.83 1003.49 1003.07 1002.58 1002.06 1001.53 1001.04 1000.60 1000.22 999.85 999.42 998.83 997.97 996.77 995.20 993.30 991.19 989.08 987.19 985.77 985.00 985.01 985.78 987.24 989.20 991.43 993.67 995.73 997.48 998.88 999.97 1000.83 1001.57 1002.30 1003.08
1005.95 1005.66 1005.37 1005.09 1004.82 1004.54 1004.27 1003.97 1003.63 1003.25 1002.80 1002.31 1001.79 1001.28 1000.80 1000.39 1000.02 999.64 999.17 998.49 997.49 996.09 994.27 992.07 989.65 987.23 985.08 983.47 982.60 982.61 983.49 985.14 987.35 989.87 992.42 994.77 996.77 998.38 999.62 1000.57 1001.37 1002.12 1002.89
1006.43 1006.10 1005.75 1005.39 1005.02 1004.66 1004.31 1003.95 1003.58 1003.17 1002.72 1002.22 1001.70 1001.19 1000.71 1000.29 999.91 999.51 999.00 998.26 997.17 995.65 993.68 991.33 988.75 986.18 983.91 982.21 981.30 981.31 982.24 983.98 986.32 988.98 991.67 994.17 996.30 998.02 999.34 1000.37 1001.21 1001.98 1002.76
1006.82 1006.47 1006.08 1005.66 1005.23 1004.82 1004.43 1004.05 1003.66 1003.25 1002.80 1002.30 1001.78 1001.25 1000.76 1000.31 999.90 999.48 998.94 998.17 997.07 995.54 993.57 991.23 988.68 986.14 983.90 982.23 981.35 981.37 982.29 984.01 986.31 988.93 991.58 994.04 996.15 997.85 999.18 1000.22 1001.09 1001.88 1002.67
1007.09 1006.74 1006.32 1005.87 1005.42 1004.99 1004.60 1004.22 1003.85 1003.46 1003.02 1002.53 1001.99 1001.45 1000.93 1000.45 1000.01 999.56 999.01 998.27 997.23 995.80 993.97 991.81 989.45 987.11 985.06 983.54 982.74 982.78 983.65 985.24 987.36 989.76 992.18 994.43 996.36 997.93 999.17 1000.17 1001.02 1001.82 1002.62
1007.26 1006.91 1006.50 1006.04 1005.59 1005.18 1004.80 1004.46 1004.13 1003.76 1003.35 1002.86 1002.33 1001.76 1001.21 1000.69 1000.22 999.75 999.22 998.54 997.62 996.38 994.81 992.95 990.93 988.94 987.19 985.91 985.26 985.32 986.09 987.48 989.30 991.35 993.40 995.30 996.92 998.25 999.32 1000.22 1001.02 1001.81 1002.62
1007.37 1007.03 1006.63 1006.19 1005.76 1005.38 1005.05 1004.75 1004.46 1004.13 1003.75 1003.28 1002.74 1002.16 1001.57 1001.02 1000.51 1000.02 999.52 998.93 998.16 997.15 995.89 994.41 992.81 991.23 989.86 988.88 988.40 988.50 989.17 990.31 991.78 993.41 995.02 996.49 997.74 998.77 999.62 1000.37 1001.10 1001.85 1002.66
1007.47 1007.15 1006.76 1006.35 1005.96 1005.62 1005.33 1005.09 1004.84 1004.56 1004.20 1003.74 1003.20 1002.61 1001.99 1001.40 1000.86 1000.37 999.89 999.38 998.76 997.99 997.04 995.94 994.75 993.60 992.63 991.95 991.66 991.81 992.38 993.28 994.41 995.61 996.78 997.81 998.69 999.41 1000.04 1000.63 1001.26 1001.97 1002.76
1007.58 1007.28 1006.92 1006.54 1006.20 1005.91 1005.67 1005.48 1005.27 1005.03 1004.69 1004.25 1003.71 1003.10 1002.47 1001.85 1001.28 1000.77 1000.31 999.85 999.35 998.77 998.08 997.31 996.49 995.72 995.09 994.70 994.59 994.79 995.28 995.98 996.80 997.65 998.42 999.09 999.64 1000.10 1000.52 1000.97 1001.51 1002.16 1002.91
1007.72 1007.45 1007.12 1006.79 1006.50 1006.26 1006.07 1005.91 1005.75 1005.53 1005.22 1004.79 1004.26 1003.65 1003.00 1002.36 1001.77 1001.24 1000.77 1000.34 999.91 999.45 998.95 998.41 997.87 997.38 997.02 996.84 996.87 997.12 997.55 998.11 998.71 999.29 999.79 1000.18 1000.49 1000.76 1001.03 1001.38 1001.84 1002.42 1003.11
1007.86 1007.62 1007.34 1007.07 1006.83 1006.64 1006.50 1006.39 1006.26 1006.06 1005.77 1005.36 1004.84 1004.23 1003.59 1002.94 1002.34 1001.79 1001.31 1000.88 1000.47 1000.06 999.65 999.24 998.86 998.54 998.35 998.31 998.43 998.71 999.10 999.57 1000.04 1000.45 1000.78 1001.02 1001.19 1001.35 1001.54 1001.82 1002.22 1002.74 1003.37
1007.96 1007.77 1007.54 1007.33 1007.15 1007.02 1006.94 1006.86 1006.77 1006.60 1006.33 1005.94 1005.44 1004.86 1004.23 1003.60 1002.99 1002.44 1001.95 1001.49 1001.07 1000.66 1000.27 999.89 999.56 999.32 999.19 999.20 999.35 999.63 1000.00 1000.41 1000.81 1001.15 1001.41 1001.59 1001.73 1001.86 1002.02 1002.27 1002.63 1003.10 1003.65
1007.99 1007.84 1007.67 1007.52 1007.41 1007.35 1007.32 1007.30 1007.24 1007.11 1006.87 1006.51 1006.05 1005.50 1004.91 1004.31 1003.73 1003.19 1002.69 1002.22 1001.77 1001.33 1000.90 1000.50 1000.15 999.89 999.74 999.73 999.85 1000.10 1000.43 1000.81 1001.18 1001.50 1001.76 1001.96 1002.12 1002.27 1002.45 1002.70 1003.04 1003.46 1003.95
1007.90 1007.80 1007.69 1007.61 1007.57 1007.58 1007.62 1007.66 1007.65 1007.56 1007.36 1007.05 1006.63 1006.13 1005.59 1005.05 1004.51 1004.00 1003.52 1003.05 1002.59 1002.12 1001.64 1001.19 1000.78 1000.44 1000.23 1000.14 1000.20 1000.38 1000.66 1000.99 1001.34 1001.67 1001.95 1002.19 1002.40 1002.60 1002.82 1003.08 1003.40 1003.78 1004.20
1007.72 1007.66 1007.60 1007.58 1007.62 1007.70 1007.81 1007.92 1007.97 1007.93 1007.78 1007.51 1007.15 1006.71 1006.24 1005.75 1005.28 1004.83 1004.39 1003.94 1003.49 1003.01 1002.51 1002.00 1001.53 1001.12 1000.82 1000.64 1000.59 1000.69 1000.89 1001.16 1001.47 1001.79 1002.09 1002.36 1002.61 1002.85 1003.10 1003.36 1003.67 1004.01 1004.39
1007.48 1007.44 1007.42 1007.46 1007.56 1007.72 1007.90 1008.07 1008.18 1008.20 1008.10 1007.89 1007.58 1007.21 1006.80 1006.38 1005.98 1005.59 1005.21 1004.82 1004.40 1003.94 1003.44 1002.93 1002.42 1001.95 1001.57 1001.30 1001.16 1001.14 1001.25 1001.44 1001.69 1001.97 1002.25 1002.52 1002.78 1003.03 1003.28 1003.54 1003.83 1004.14 1004.47
Thickness
5800 5801 5793 5792 5791 5790 5790 5789 5789 5787 5786 5785 5784 5782 5781 5780 5779 5778 5777 5776 5776 5775 5773 5772 5770 5770 5769 5768 5767 5766 5766 5765 5764 5763 5762 5762 5761 5760 5760 5760 5760 5761 5758
5803 5800 5793 5792 5791 5790 5789 5789 5788 5787 5786 5785 5783 5781 5780 5779 5778 5777 5776 5775 5774 5773 5772 5771 5770 5769 5768 5767 5766 5765 5764 5763 5763 5763 5762 5762 5761 5760 5759 5759 5759 5760 5757
5803 5800 5794 5791 5790 5789 5789 5789 5788 5787 5786 5784 5782 5781 5780 5778 5777 5776 5775 5774 5773 5772 5771 5770 5769 5768 5767 5766 5765 5764 5763 5762 5762 5762 5763 5765 5763 5759 5759 5758 5757 5756 5755
5802 5799 5796 5791 5790 5789 5788 5788 5787 5787 5786 5784 5782 5780 5779 5777 5776 5776 5774 5773 5772 5771 5770 5769 5768 5768 5767 5765 5764 5763 5762 5761 5762 5762 5765 5766 5764 5759 5758 5757 5756 5755 5754
5800 5797 5794 5790 5789 5789 5788 5787 5787 5787 5786 5784 5782 5780 5778 5777 5776 5775 5774 5772 5772 5770 5769 5768 5768 5767 5766 5765 5764 5763 5762 5762 5762 5764 5766 5765 5763 5759 5757 5756 5755 5754 5753
5800 5798 5793 5790 5789 5788 5787 5786 5786 5786 5785 5783 5781 5779 5778 5776 5775 5774 5773 5772 5771 5770 5769 5768 5767 5766 5766 5764 5763 5763 5762 5763 5764 5768 5767 5766 5764 5759 5757 5756 5754 5753 5752
5800 5798 5794 5789 5788 5787 5786 5786 5785 5785 5784 5782 5780 5779 5777 5776 5775 5774 5773 5771 5770 5769 5769 5768 5767 5766 5766 5765 5764 5763 5763 5764 5767 5769 5768 5767 5763 5759 5757 5755 5754 5753 5752
5800 5799 5795 5790 5788 5787 5786 5785 5784 5784 5783 5782 5780 5779 5777 5776 5775 5774 5772 5771 5770 5770 5769 5768 5767 5766 5766 5765 5764 5764 5763 5764 5769 5771 5769 5766 5761 5759 5757 5755 5754 5752 5751
5801 5800 5798 5795 5790 5787 5785 5784 5783 5783 5782 5781 5780 5779 5777 5776 5775 5774 5773 5772 5771 5770 5769 5768 5768 5767 5767 5766 5765 5765 5765 5766 5771 5771 5770 5767 5761 5758 5756 5755 5753 5752 5751
5801 5799 5797 5796 5793 5791 5788 5785 5783 5782 5781 5780 5779 5778 5778 5777 5776 5775 5775 5773 5772 5771 5770 5769 5768 5768 5768 5767 5766 5766 5766 5768 5773 5773 5771 5766 5761 5758 5756 5755 5753 5752 5751
5797 5797 5797 5796 5794 5792 5791 5787 5785 5783 5781 5781 5780 5779 5779 5781 5780 5778 5777 5774 5773 5772 5771 5770 5769 5769 5769 5769 5768 5768 5768 5773 5774 5773 5770 5764 5761 5758 5757 5755 5754 5752 5751
5793 5795 5796 5795 5794 5793 5792 5789 5788 5787 5784 5783 5782 5782 5782 5781 5781 5781 5776 5775 5774 5773 5771 5771 5771 5771 5773 5775 5773 5771 5775 5775 5775 5774 5770 5764 5761 5759 5757 5756 5754 5752 5751
5795 5795 5796 5795 5793 5793 5791 5790 5789 5788 5786 5785 5783 5783 5782 5782 5782 5782 5780 5778 5776 5775 5776 5774 5775 5777 5778 5778 5777 5778 5777 5778 5777 5775 5770 5764 5762 5760 5758 5756 5755 5753 5751
5795 5795 5796 5795 5793 5791 5790 5790 5789 5789 5787 5787 5784 5784 5784 5783 5782 5782 5781 5780 5779 5779 5777 5778 5778 5778 5778 5779 5779 5778 5778 5778 5777 5774 5769 5764 5762 5760 5758 5757 5755 5754 5752
5795 5795 5795 5794 5791 5790 5788 5788 5789 5788 5788 5788 5784 5783 5783 5784 5783 5783 5781 5780 5781 5780 5780 5779 5779 5779 5779 5780 5780 5779 5778 5777 5776 5775 5770 5765 5762 5760 5759 5757 5756 5754 5753
5796 5796 5796 5794 5792 5789 5787 5786 5787 5788 5786 5787 5786 5784 5782 5783 5782 5782 5781 5780 5781 5781 5781 5780 5780 5779 5780 5780 5780 5778 5777 5777 5775 5773 5772 5767 5763 5761 5759 5757 5756 5755 5753
5798 5797 5795 5794 5792 5790 5788 5788 5788 5788 5788 5787 5785 5783 5782 5782 5781 5781 5781 5781 5781 5781 5780 5780 5779 5780 5779 5780 5779 5778 5778 5776 5775 5773 5772 5770 5768 5763 5760 5758 5756 5754 5753
5801 5798 5796 5796 5793 5790 5788 5787 5788 5787 5786 5786 5785 5784 5782 5782 5781 5781 5782 5782 5781 5781 5781 5780 5780 5779 5778 5778 5778 5778 5778 5776 5774 5773 5772 5771 5769 5767 5763 5759 5756 5754 5753
5802 5798 5795 5795 5793 5791 5789 5787 5786 5785 5785 5785 5785 5784 5783 5781 5781 5782 5782 5780 5780 5781 5781 5782 5780 5778 5776 5776 5777 5777 5778 5776 5775 5775 5772 5771 5769 5767 5765 5760 5757 5755 5753
5803 5799 5796 5794 5792 5790 5789 5787 5786 5785 5785 5785 5784 5783 5782 5782 5781 5781 5781 5779 5780 5780 5779 5779 5776 5775 5775 5774 5776 5776 5776 5776 5776 5774 5772 5771 5769 5767 5765 5762 5759 5756 5753
5803 5798 5796 5793 5791 5789 5788 5786 5784 5783 5784 5784 5784 5783 5782 5782 5781 5780 5781 5778 5778 5778 5777 5778 5776 5774 5774 5774 5772 5770 5773 5775 5773 5771 5771 5769 5768 5766 5763 5761 5759 5757 5754
5803 5799 5796 5793 5792 5791 5789 5787 5785 5785 5785 5784 5784 5782 5782 5781 5781 5782 5778 5778 5777 5776 5775 5775 5773 5773 5773 5774 5770 5766 5764 5765 5767 5771 5769 5767 5766 5764 5763 5761 5757 5754 5754
5804 5801 5800 5795 5793 5791 5790 5789 5787 5785 5784 5783 5781 5782 5781 5781 5781 5779 5778 5778 5776 5777 5775 5773 5773 5771 5770 5771 5772 5767 5760 5758 5761 5765 5765 5764 5762 5761 5760 5759 5757 5754 5752
5807 5806 5801 5797 5794 5792 5790 5788 5785 5782 5780 5780 5781 5781 5781 5780 5780 5779 5778 5777 5776 5776 5774 5774 5775 5773 5769 5768 5769 5768 5766 5763 5756 5754 5759 5761 5759 5757 5757 5757 5756 5753 5751
5811 5808 5803 5798 5794 5792 5790 5787 5784 5784 5783 5783 5782 5779 5779 5779 5778 5778 5776 5775 5774 5775 5774 5772 5772 5771 5770 5768 5767 5765 5763 5760 5759 5753 5748 5752 5755 5755 5754 5753 5753 5751 5749
5812 5809 5805 5799 5795 5793 5791 5788 5785 5783 5781 5780 5778 5778 5778 5779 5778 5776 5775 5774 5773 5773 5771 5770 5769 5769 5767 5766 5765 5765 5761 5758 5755 5753 5749 5747 5748 5750 5751 5749 5749 5748 5746